Regional Weather Roundup
Issued by NWS

Home | Current Version | Previous Version | Graphics & Text | Print | Product List | Glossary On
Versions: 1 2 3 4 5 6 7 8 9 10 11 12 13 14 15 16 17 18 19 20 21 22 23 24 25 26 27 28 29 30 31 32 33 34 35 36 37 38 39 40 41 42 43 44 45 46 47 48 49 50
000
ASUS45 KCYS 280410
RWRWY

WYOMING REGIONAL WEATHER ROUNDUP
NATIONAL WEATHER SERVICE CHEYENNE WY
900 PM MST SAT DEC 27 2014

NOTE:  "FAIR" INDICATES FEW OR NO CLOUDS BELOW 12,000 FEET
WITH NO SIGNIFICANT WEATHER AND/OR OBSTRUCTIONS TO VISIBILITY.

WYZ001-280500-
YELLOWSTONE NATIONAL PARK

CITY           SKY/WX    TMP DP  RH WIND       PRES   REMARKS
LK YELLOWSTONE   N/A     10   6  84 CALM      30.00F
W YELLOWSTONE  NOT AVBL

$$
WYZ002>013-054>058-071-098>099-280500-
NORTHERN WYOMING

CITY           SKY/WX    TMP DP  RH WIND       PRES   REMARKS
JACKSON        CLOUDY    16  14  93 SW9       30.07F WCI   4
CODY           FAIR      27   7  43 W13G32    29.93F WCI  16
GREYBULL       FAIR       2  -1  88 SE5       30.05F WCI  -8
WORLAND        FAIR      -4  -8  83 SE7       30.03F WCI -18
SHERIDAN       MOCLDY    12   5  73 CALM      29.95F
BUFFALO        FAIR      13   0  56 SW3       29.95S
GILLETTE       FAIR      18   4  54 S13       29.97S WCI   5
HULETT           N/A    N/A N/A N/A MISG        N/A
NEWCASTLE      FAIR      10   7  85 CALM      30.02F

$$
WYZ014>020-022>026-101>103-280500-
CENTRAL WYOMING

CITY           SKY/WX    TMP DP  RH WIND       PRES   REMARKS
BIG PINEY      FAIR      -9 -13  83 CALM      30.09F
PINEDALE       FAIR      -8  -9  92 W3        30.09F
DUBOIS         NOT AVBL
LANDER         FAIR       5  -1  76 E3        29.99F
RIVERTON       FAIR       6   0  76 SW10      30.00F WCI  -9
CASPER         FAIR      17   7  64 SW18      30.02S WCI   1
DOUGLAS        FAIR      13   5  70 N7        30.02S WCI   3

$$
WYZ021-027>030-104>119-280500-
SOUTHERN WYOMING

CITY           SKY/WX    TMP DP  RH WIND       PRES   REMARKS
EVANSTON       FAIR      13   7  77 SW15      30.12F WCI  -3
FORT BRIDGER   FAIR      16   6  64 W14       30.14F WCI   1
ROCK SPRINGS   CLOUDY    14   6  70 S8        30.11F WCI   3
DIXON          MOCLDY     8   1  72 CALM      30.20S
RAWLINS        FAIR      13   4  67 VRB5      30.05R WCI   5
SARATOGA       FAIR       5   0  78 E5        30.08S WCI  -4
LARAMIE        FAIR       9  -2  61 SW17      29.99S WCI  -9
CHEYENNE       FAIR      17   0  47 W16       30.00F WCI   2
TORRINGTON     FAIR      20   7  57 NW7       30.05F WCI  11
PINE BLUFFS    FAIR       3  -2  78 MISG      30.06F

$$


USA.gov is the U.S. government's official web portal to all federal, state and local government web resources and services.